This is the latest recevied weather packets stored in our database for station/object NorthRyde. If no packets are shown the sender has not sent any weather packets the latest 10 day(s).
| Time | Temp. | Humidity | Pressure | Rain* | Wind** | Luminosity | Snow |
|---|---|---|---|---|---|---|---|
| 1777270781 | 22.22° C | 63% | 1024.5 hPa | 0 mm | - | 100 W/m² | - |
| 1777270718 | 22.22° C | 63% | 1024.6 hPa | 0 mm | - | 100 W/m² | - |
| 1777270658 | 22.22° C | 63% | 1024.6 hPa | 0 mm | - | 104 W/m² | - |
| 1777270601 | 22.22° C | 63% | 1024.6 hPa | 0 mm | - | 105 W/m² | - |
| 1777270537 | 22.22° C | 63% | 1024.6 hPa | 0 mm | - | 107 W/m² | - |
| 1777270478 | 22.78° C | 63% | 1024.7 hPa | 0 mm | - | 111 W/m² | - |
| 1777270416 | 22.78° C | 63% | 1024.6 hPa | 0 mm | - | 118 W/m² | - |
| 1777270360 | 22.78° C | 63% | 1024.6 hPa | 0 mm | - | 121 W/m² | - |
| 1777270298 | 22.78° C | 63% | 1024.7 hPa | 0 mm | - | 125 W/m² | - |
| 1777270238 | 22.78° C | 62% | 1024.5 hPa | 0 mm | - | 128 W/m² | - |
| 1777270178 | 22.78° C | 62% | 1024.6 hPa | 0 mm | - | 132 W/m² | - |
| 1777270118 | 22.78° C | 62% | 1024.6 hPa | 0 mm | - | 132 W/m² | - |
| 1777270060 | 22.78° C | 62% | 1024.7 hPa | 0 mm | - | 134 W/m² | - |
| 1777270039 | 22.78° C | 62% | 1024.6 hPa | 0 mm | - | 139 W/m² | - |
| 1777270019 | 22.78° C | 62% | 1024.6 hPa | 0 mm | - | 141 W/m² | - |
| 1777270001 | 22.78° C | 62% | 1024.6 hPa | 0 mm | - | 148 W/m² | - |
| 1777269820 | 23.33° C | 61% | 1024.6 hPa | 0 mm | - | 148 W/m² | - |
| 1777269758 | 23.33° C | 61% | 1024.5 hPa | 0 mm | - | 169 W/m² | - |
| 1777269698 | 23.33° C | 61% | 1024.6 hPa | 0 mm | - | 195 W/m² | - |
| 1777269671 | 23.33° C | 61% | 1024.5 hPa | 0 mm | - | 209 W/m² | - |
| 1777269649 | 23.33° C | 61% | 1024.6 hPa | 0 mm | - | 213 W/m² | - |
| 1777269624 | 23.33° C | 61% | 1024.5 hPa | 0 mm | - | 214 W/m² | - |
| 1777269459 | 23.33° C | 61% | 1024.6 hPa | 0 mm | - | 220 W/m² | - |
| 1777269432 | 23.33° C | 61% | 1024.6 hPa | 0 mm | - | 221 W/m² | - |
| 1777269412 | 23.33° C | 61% | 1024.6 hPa | 0 mm | - | 225 W/m² | - |
* Rain latest hour (hover to see other rain measurements)
** Current wind speed in m/s (hover to see current wind gust speed)